This demonstration page uses our WeatherBlox Daily Observations layout. Learn more.

Left ArrowRight Arrow

Hourly Observations for May 27, 2020

Temp ( °F °C ) Dew Point ( °F °C ) Humidity (%) Winds ( mph kmh ) Pressure ( in mb ) Visibility ( mi km ) Precip ( " mm )
12:56 am 00:56 Clear 57 13.9 51 10.6 81 81 NW 5 7 29.92 1013 10 16 0.00 0.00
1:56 am 01:56 Clear 55 12.8 51 10.6 87 87 WNW 6 9 29.92 1013 10 16 0.00 0.00
2:56 am 02:56 Clear 55 12.8 50 10 83 83 NW 3 6 29.92 1013 10 16 0.00 0.00
3:56 am 03:56 Clear 53 11.7 49 9.4 86 86 WNW 7 11 29.93 1013 10 16 0.00 0.00
4:56 am 04:56 Clear 52 11.1 49 9.4 89 89 WNW 6 9 29.93 1014 10 16 0.00 0.00
5:56 am 05:56 Clear 52 11.1 48 8.9 86 86 WNW 7 11 29.94 1014 10 16 0.00 0.00
6:56 am 06:56 Sunny 51 10.6 48 8.9 89 89 NW 6 9 29.95 1014 10 16 0.00 0.00
7:56 am 07:56 Sunny 53 11.7 48 8.9 83 83 NW 7 11 29.96 1015 10 16 0.00 0.00
8:56 am 08:56 Sunny 56 13.3 51 10.6 84 84 NNW 7 11 29.97 1015 10 16 0.00 0.00
9:56 am 09:56 Sunny 61 16.1 53 11.7 75 75 NNW 6 9 29.97 1015 10 16 0.00 0.00
10:56 am 10:56 Sunny 68 20 52 11.1 57 57 N 6 9 29.96 1015 10 16 0.00 0.00
11:56 am 11:56 Sunny 70 21.1 52 11.1 53 53 NNE 8 13 29.96 1015 10 16 0.00 0.00
12:56 pm 12:56 Sunny 71 21.7 51 10.6 49 49 NE 7 11 29.96 1015 10 16 0.00 0.00
1:56 pm 13:56 Sunny 75 23.9 52 11.1 45 45 NE 9 15 29.94 1014 10 16 0.00 0.00
2:56 pm 14:56 Sunny 74 23.3 52 11.1 46 46 N 9 15 29.93 1014 10 16 0.00 0.00
3:56 pm 15:56 Sunny 75 23.9 53 11.7 46 46 NNE 10 17 29.93 1014 10 16 0.00 0.00
4:56 pm 16:56 Sunny 75 23.9 55 12.8 50 50 NE 15 24 29.92 1013 10 16 0.00 0.00
5:56 pm 17:56 Sunny 73 22.8 54 12.2 51 51 NE 9 15 29.92 1013 10 16 0.00 0.00
6:56 pm 18:56 Sunny 73 22.8 54 12.2 51 51 ENE 6 9 29.92 1013 10 16 0.00 0.00
7:56 pm 19:56 Sunny 72 22.2 54 12.2 53 53 ENE 9 15 29.93 1013 10 16 0.00 0.00
8:56 pm 20:56 Sunny 68 20 56 13.3 65 65 NE 5 7 29.94 1014 10 16 0.00 0.00
9:56 pm 21:56 Clear 66 18.9 53 11.7 63 63 N 9 15 29.95 1014 10 16 0.00 0.00
10:56 pm 22:56 Clear 63 17.2 53 11.7 70 70 NNE 9 15 29.95 1014 10 16 0.00 0.00
11:56 pm 23:56 Clear 60 15.6 53 11.7 78 78 NE 8 13 29.96 1015 10 16 0.00 0.00

Powered by AerisWeather